[keps] orb10266.amsat

Keith Pugh w5iu at swbell.net
Thu Sep 23 19:27:49 PDT 2010


SB KEPS @ AMSAT  $ORB10266.O
Orbital Elements  10266.OSCAR

HR AMSAT ORBITAL ELEMENTS FOR OSCAR SATELLITES
FROM WA5QGD FORT WORTH,TX September 23, 2010
Send Subscribe/unsubscribe to KEPS at
http://www.amsat.org/mailman/listinfo/keps
BID: ORB10266.O
TO ALL RADIO AMATEURS BT

Satellite: AO-07
Catalog number: 07530
Epoch time:      10266.84319137
Element set:     885
Inclination:      101.4016 deg
RA of node:       278.8794 deg
Eccentricity:    0.0012079
Arg of perigee:   080.4295 deg
Mean anomaly:     279.8142 deg
Mean motion:   12.53579591 rev/day
Decay rate:       -2.7e-07 rev/day^2
Epoch rev:           64081
Checksum:              319

Satellite: FO-29
Catalog number: 24278
Epoch time:      10265.94204269
Element set:    0405
Inclination:      098.5160 deg
RA of node:       081.5749 deg
Eccentricity:    0.0349957
Arg of perigee:   230.1883 deg
Mean anomaly:     126.7975 deg
Mean motion:   13.52953202 rev/day
Decay rate:        6.4e-07 rev/day^2
Epoch rev:           69632
Checksum:              334

Satellite: SO-33
Catalog number: 25509
Epoch time:      10265.48173376
Element set:    0801
Inclination:      031.4334 deg
RA of node:       318.3102 deg
Eccentricity:    0.0353296
Arg of perigee:   060.6605 deg
Mean anomaly:     302.8829 deg
Mean motion:   14.28329749 rev/day
Decay rate:        7.8e-07 rev/day^2
Epoch rev:           62197
Checksum:              308

Satellite: RS-22
Catalog number: 27939
Epoch time:      10266.64966554
Element set:     569
Inclination:      097.8776 deg
RA of node:       127.8856 deg
Eccentricity:    0.0014640
Arg of perigee:   106.5920 deg
Mean anomaly:     253.6888 deg
Mean motion:   14.63454188 rev/day
Decay rate:       1.07e-06 rev/day^2
Epoch rev:           37335
Checksum:              356

Satellite: VO-52
Catalog number: 28650
Epoch time:      10266.65610192
Element set:     604
Inclination:      097.6828 deg
RA of node:       316.1960 deg
Eccentricity:    0.0026307
Arg of perigee:   316.5900 deg
Mean anomaly:     043.3240 deg
Mean motion:   14.81812417 rev/day
Decay rate:       5.32e-06 rev/day^2
Epoch rev:           29127
Checksum:              285

Satellite: SO-67
Catalog number: 35870
Epoch time:      10266.73425126
Element set:     132
Inclination:      097.3218 deg
RA of node:       313.2117 deg
Eccentricity:    0.0004558
Arg of perigee:   103.5936 deg
Mean anomaly:     352.5134 deg
Mean motion:   15.21064037 rev/day
Decay rate:       8.81e-06 rev/day^2
Epoch rev:            5643
Checksum:              281

Satellite: HO-68
Catalog number: 36122
Epoch time:      10266.67867551
Element set:     695
Inclination:      100.4589 deg
RA of node:       326.0643 deg
Eccentricity:    0.0007810
Arg of perigee:   111.3739 deg
Mean anomaly:     248.8203 deg
Mean motion:   13.16281741 rev/day
Decay rate:       -4.5e-07 rev/day^2
Epoch rev:            3717
Checksum:              300

/EX
SB KEPS @ AMSAT  $ORB10266.D
Orbital Elements  10266.MICROS

HR AMSAT ORBITAL ELEMENTS FOR THE MICROSATS
FROM WA5QGD FORT WORTH,TX September 23, 2010
Send Subscribe/unsubscribe to KEPS at
http://www.amsat.org/mailman/listinfo/keps
BID: ORB10266.D
TO ALL RADIO AMATEURS BT

Satellite: UO-11
Catalog number: 14781
Epoch time:      10265.72843712
Element set:     345
Inclination:      098.0459 deg
RA of node:       317.7101 deg
Eccentricity:    0.0008016
Arg of perigee:   286.4090 deg
Mean anomaly:     073.6248 deg
Mean motion:   14.79837385 rev/day
Decay rate:       4.19e-06 rev/day^2
Epoch rev:           42623
Checksum:              308

Satellite: AO-16
Catalog number: 20439
Epoch time:      10265.87978753
Element set:    0001
Inclination:      098.3429 deg
RA of node:       219.9937 deg
Eccentricity:    0.0010009
Arg of perigee:   235.3555 deg
Mean anomaly:     124.6685 deg
Mean motion:   14.31874823 rev/day
Decay rate:        2.4e-07 rev/day^2
Epoch rev:           07936
Checksum:              322

Satellite: LO-19
Catalog number: 20442
Epoch time:      10265.79199324
Element set:     909
Inclination:      098.3048 deg
RA of node:       225.3186 deg
Eccentricity:    0.0011175
Arg of perigee:   229.0160 deg
Mean anomaly:     131.0072 deg
Mean motion:   14.32104616 rev/day
Decay rate:        6.0e-08 rev/day^2
Epoch rev:            7952
Checksum:              275

Satellite: AO-27
Catalog number: 22825
Epoch time:      10265.73895177
Element set:     632
Inclination:      098.4938 deg
RA of node:       211.2053 deg
Eccentricity:    0.0008303
Arg of perigee:   348.4384 deg
Mean anomaly:     011.6611 deg
Mean motion:   14.29308571 rev/day
Decay rate:        2.0e-07 rev/day^2
Epoch rev:           88598
Checksum:              310

Satellite: IO-26
Catalog number: 22826
Epoch time:      10265.85690217
Element set:    0372
Inclination:      098.4884 deg
RA of node:       211.8862 deg
Eccentricity:    0.0008690
Arg of perigee:   343.0843 deg
Mean anomaly:     017.0053 deg
Mean motion:   14.29566073 rev/day
Decay rate:        2.8e-07 rev/day^2
Epoch rev:           88611
Checksum:              313

Satellite: GO-32
Catalog number: 25397
Epoch time:      10266.52826931
Element set:     290
Inclination:      098.3165 deg
RA of node:       268.5781 deg
Eccentricity:    0.0001331
Arg of perigee:   022.4119 deg
Mean anomaly:     337.7103 deg
Mean motion:   14.23185606 rev/day
Decay rate:        1.7e-07 rev/day^2
Epoch rev:           63403
Checksum:              284

Satellite: NO-44
Catalog number: 26931
Epoch time:      10265.65865937
Element set:     564
Inclination:      067.0533 deg
RA of node:       312.8443 deg
Eccentricity:    0.0005364
Arg of perigee:   272.2035 deg
Mean anomaly:     087.8482 deg
Mean motion:   14.29610807 rev/day
Decay rate:       -2.5e-07 rev/day^2
Epoch rev:           46868
Checksum:              321

Satellite: SO-50
Catalog number: 27607
Epoch time:      10265.66498712
Element set:    0276
Inclination:      064.5565 deg
RA of node:       060.4325 deg
Eccentricity:    0.0041204
Arg of perigee:   034.9990 deg
Mean anomaly:     325.3782 deg
Mean motion:   14.71578470 rev/day
Decay rate:       1.36e-06 rev/day^2
Epoch rev:           41672
Checksum:              309

Satellite: CO-55
Catalog number: 27844
Epoch time:      10266.55129911
Element set:     942
Inclination:      098.7116 deg
RA of node:       274.1231 deg
Eccentricity:    0.0008939
Arg of perigee:   248.0949 deg
Mean anomaly:     111.9297 deg
Mean motion:   14.20731454 rev/day
Decay rate:        9.6e-07 rev/day^2
Epoch rev:           37505
Checksum:              322

Satellite: CO-57
Catalog number: 27848
Epoch time:      10265.53875341
Element set:    0889
Inclination:      098.7163 deg
RA of node:       272.2380 deg
Eccentricity:    0.0008907
Arg of perigee:   254.3899 deg
Mean anomaly:     105.6294 deg
Mean motion:   14.20521843 rev/day
Decay rate:        6.6e-07 rev/day^2
Epoch rev:           37486
Checksum:              346

Satellite: AO-51
Catalog number: 28375
Epoch time:      10266.42290431
Element set:     781
Inclination:      098.0707 deg
RA of node:       254.3701 deg
Eccentricity:    0.0083638
Arg of perigee:   158.5192 deg
Mean anomaly:     201.9548 deg
Mean motion:   14.40699590 rev/day
Decay rate:        2.6e-07 rev/day^2
Epoch rev:           32765
Checksum:              317

Satellite: GENESAT1
Catalog number: 29655
Epoch time:      10216.61700559
Element set:     226
Inclination:      040.0059 deg
RA of node:       067.3006 deg
Eccentricity:    0.0005079
Arg of perigee:   297.8744 deg
Mean anomaly:     064.7087 deg
Mean motion:   16.44862838 rev/day
Decay rate:  1.0637092e-01 rev/day^2
Epoch rev:           20777
Checksum:              320

Satellite: CP3
Catalog number: 31129
Epoch time:      10265.63708848
Element set:    0683
Inclination:      097.9313 deg
RA of node:       299.9526 deg
Eccentricity:    0.0101293
Arg of perigee:   292.0237 deg
Mean anomaly:     067.0215 deg
Mean motion:   14.52304546 rev/day
Decay rate:       -6.7e-07 rev/day^2
Epoch rev:           18200
Checksum:              299

Satellite: CO-65
Catalog number: 32785
Epoch time:      10266.69326069
Element set:     791
Inclination:      097.8869 deg
RA of node:       330.2074 deg
Eccentricity:    0.0014658
Arg of perigee:   329.0234 deg
Mean anomaly:     031.0096 deg
Mean motion:   14.81720875 rev/day
Decay rate:       4.79e-06 rev/day^2
Epoch rev:           13007
Checksum:              325

Satellite: KKS-1
Catalog number: 33493
Epoch time:      10266.82494025
Element set:     880
Inclination:      098.0962 deg
RA of node:       027.2214 deg
Eccentricity:    0.0019945
Arg of perigee:   178.8034 deg
Mean anomaly:     181.3231 deg
Mean motion:   14.81109838 rev/day
Decay rate:       7.21e-06 rev/day^2
Epoch rev:            9008
Checksum:              298

Satellite: SOHLA-1
Catalog number: 33496
Epoch time:      10266.75654560
Element set:     211
Inclination:      098.0645 deg
RA of node:       014.5886 deg
Eccentricity:    0.0005560
Arg of perigee:   247.9763 deg
Mean anomaly:     112.0890 deg
Mean motion:   14.69517116 rev/day
Decay rate:        8.4e-07 rev/day^2
Epoch rev:            8935
Checksum:              311

Satellite: TISAT-1
Catalog number: 36799
Epoch time:      10266.82046842
Element set:     152
Inclination:      098.1389 deg
RA of node:       327.0126 deg
Eccentricity:    0.0016557
Arg of perigee:   059.5844 deg
Mean anomaly:     300.6980 deg
Mean motion:   14.80173312 rev/day
Decay rate:       4.31e-06 rev/day^2
Epoch rev:            1090
Checksum:              294

